Location: Sungai Ketit
(2.6833°N, 113.2333°E)
Time: 21:06:42
(UTC+00:00)

Cosmos 1680 Rocket - Pass Details

Date: 23 May 2024
Orbit: 758 x 778 km, 74.1° (Epoch: 19 June)

Event Time Altitude Azimuth Distance (km) Brightness Sun altitude
Rises 11:31:31 0° 191° (S) 3,255 6.6 -14.8°
Reaches altitude 10° 11:33:54 10° 190° (S) 2,326 5.9 -15.3°
Maximum altitude 11:39:11 84° 103° (ESE) 784 3.4 -16.5°
Drops below altitude 10° 11:44:27 10° 14° (NNE) 2,314 6.1 -17.8°
Sets 11:46:49 0° 14° (NNE) 3,236 6.9 -18.3°
